Regional Weather Roundup
Issued by NWS

Home | Current Version | Previous Version | Text Only | Print | Product List | Glossary On
Versions: 1 2 3 4 5 6 7 8 9 10 11 12 13 14 15 16 17 18 19 20 21 22 23 24 25 26 27 28 29 30 31 32 33 34 35 36 37 38 39 40 41 42 43 44 45 46 47 48 49 50
000
ASUS43 KMKX 260410
RWRWI

WISCONSIN REGIONAL WEATHER ROUNDUP
NATIONAL WEATHER SERVICE MILWAUKEE/SULLIVAN WI
1100 PM CDT WED APR 25 2018

NOTE: "FAIR" INDICATES FEW OR NO CLOUDS BELOW 12,000 FEET WITH NO
SIGNIFICANT WEATHER AND/OR OBSTRUCTIONS TO VISIBILITY.

WIZ001-002-006>008-014>016-023>028-260500-
NORTHWEST WISCONSIN

CITY           SKY/WX    TMP DP  RH WIND       PRES   REMARKS
SUPERIOR ARPT  FAIR      35  27  72 CALM      29.93F
ASHLAND        FAIR      33  27  78 W5        29.94F WCI  29
HAYWARD        FAIR      35  25  66 CALM      29.95F
SIREN          FAIR      39  23  52 CALM      29.95F
CUMBERLAND     FAIR      37  27  65 CALM      29.96F
RICE LAKE      FAIR      38  30  72 CALM      29.98F
CHETEK         FAIR      37  28  71 CALM      29.96F
LADYSMITH      FAIR      40  31  68 CALM      29.97F
EAU CLAIRE     FAIR      40  25  55 CALM      29.96F
MENOMONIE      FAIR      44  27  52 CALM      29.98F
NEW RICHMOND   FAIR      40  30  67 CALM      29.97F
OSCEOLA        FAIR      42  29  58 CALM      29.99F
$$

WIZ003>005-009-010-017-018-260500-
NORTH CENTRAL WISCONSIN

CITY           SKY/WX    TMP DP  RH WIND       PRES   REMARKS
MANITOWISH WTR FAIR      31  22  68 CALM      29.94F
ARBOR VITAE    FAIR      36  23  60 CALM      29.94F
WOODRUFF       FAIR      36  23  60 CALM      29.94F
RHINELANDER    FAIR      33  24  69 CALM      29.95F
EAGLE RIVER    FAIR      31  21  65 CALM      29.94F
LAND O LAKES   FAIR      29  24  79 CALM      29.96F
PHILLIPS       FAIR      33  25  74 CALM      29.96S
TOMAHAWK       FAIR      29  24  81 CALM      29.96F
MEDFORD        FAIR      37  29  73 CALM      29.96F
MERRILL        FAIR      33  24  69 CALM      29.97F
$$

WIZ029-030-035-036-043>047-260500-
CENTRAL WISCONSIN

CITY           SKY/WX    TMP DP  RH WIND       PRES   REMARKS
WAUSAU         FAIR      40  26  57 CALM      29.95F
MOSINEE        FAIR      37  27  65 CALM      29.98F
MARSHFIELD     FAIR      41  29  62 SW3       29.96F
STEVENS POINT  FAIR      36  29  77 CALM      29.97F
WAUPACA        FAIR      41  31  66 CALM      29.97F
WAUTOMA        FAIR      36  31  82 SE3       29.99F
WISC RAPIDS    FAIR      35  27  72 CALM      29.98F
CAMP DOUGLAS   FAIR      36  28  72 CALM      29.97F
$$

WIZ011>013-019>022-031-037>040-048>050-260500-
NORTHEAST WISCONSIN

CITY           SKY/WX    TMP DP  RH WIND       PRES   REMARKS
ANTIGO         FAIR      36  32  86 CALM      29.95F
SHAWANO        FAIR      38  32  77 CALM      29.96F
OCONTO         FAIR      37  28  71 SE5       29.99F WCI  33
STURGEON BAY   FAIR      36  29  75 S8        29.99F WCI  30
GREEN BAY      FAIR      40  31  70 S6        29.99F
MANITOWOC      FAIR      36  29  75 CALM      30.01F
APPLETON       PTCLDY    43  28  56 SW5       29.97F
CLINTONVILLE   FAIR      41  30  66 S5        29.96F
OSHKOSH        FAIR      39  33  79 S7        29.98F WCI  34
$$

WIZ032>034-041-042-053>061-260500-
SOUTHWEST WISCONSIN

CITY           SKY/WX    TMP DP  RH WIND       PRES   REMARKS
LA CROSSE      FAIR      46  31  55 CALM      29.98F
SPARTA         FAIR      34  28  79 CALM      29.99F
VIROQUA        FAIR      48  28  45 CALM      29.98F
BOSCOBEL       FAIR      42  31  64 CALM      29.98F
PRAIRIE DU CHI FAIR      44  29  56 CALM      29.98F
PLATTEVILLE    FAIR      48  31  50 N3        29.99F
$$

WIZ056-057-062-063-064-067-068-260500-
SOUTH CENTRAL WISCONSIN

CITY           SKY/WX    TMP DP  RH WIND       PRES   REMARKS
REEDSBURG      FAIR      42  30  62 CALM      29.98F
BARABOO/DELLS  FAIR      40  25  54 CALM      29.98F
LONE ROCK      FAIR      41  33  73 CALM      29.98F
MINERAL POINT  FAIR      46  28  49 CALM      29.98F
MADISON        FAIR      45  32  60 SE6       29.99F
MIDDLETON      FAIR      40  33  75 CALM      30.00S
WATERTOWN      FAIR      39  31  73 CALM      30.00F
MONROE         FAIR      45  32  61 SE6       29.98F
JANESVILLE     FAIR      39  32  75 E3        30.00F
$$

WIZ051-052-058>065-066-070>072-260500-
SOUTHEAST WISCONSIN

CITY           SKY/WX    TMP DP  RH WIND       PRES   REMARKS
MILWAUKEE      FAIR      38  28  67 CALM      30.01F
WAUKESHA       FAIR      34  27  75 CALM      30.01F
MILWAUKEE/TIMM FAIR      36  27  69 CALM      30.02F
RACINE         FAIR      36  29  75 NW5       30.02F WCI  32
BURLINGTON     FAIR      33  27  80 SW3       30.01F
KENOSHA        FAIR      35  27  72 W3        30.01F
FOND DU LAC    FAIR      39  31  72 S6        29.99F WCI  35
SHEBOYGAN      FAIR      36  30  79 SW3       30.00F
WEST BEND      FAIR      34  30  86 CALM      30.00F
JUNEAU         FAIR      39  31  71 SE3       30.01F
$$

LSZ147-162-260500-
LAKE SUPERIOR

STATION/POSITION TIME  TEMP    WIND        PRES    WAVE
                       AIR SEA DIR/SP/G            HT/PER
                 (UTC) (F)     (DEG/KT/KT) (MB)    (FT/S)
DEVILS ISLAND    0400   49     180/ 10/ 12 1013.2F
SAXON HARBOR     0340   36     200/  5/  6 1012.9F
$$

LMZ867-665-643>646-260500-
LAKE MICHIGAN

STATION/POSITION TIME  TEMP    WIND        PRES    WAVE
                       AIR SEA DIR/SP/G            HT/PER
                 (UTC) (F)     (DEG/KT/KT) (MB)    (FT/S)
NORTHPORT PIER   0340   35                 1015.6F
KEWAUNEE LAKESHO 0348   38     250/  2/  3 1015.4F
SHEBOYGAN LAKESH 0400   40     240/  4/  5 1016.5F
PORT WASHINGTON  0330   38     270/  2/  3 1017.6F
MILWAUKEE LAKESH 0350   39        CALM       N/A
KENOSHA   LAKESH 0400   40                 1016.3
$$

TC  - TEMPERATURE IN CELSIUS
VSB - VISIBILITY IN STATUTE MILES
WCI - WIND CHILL INDEX
HX  - HEAT INDEX




USA.gov is the U.S. government's official web portal to all federal, state and local government web resources and services.